Location: Unspecified
(35.7250°N, 0.0000°E)
Time: 05:59:48
(UTC+00:00)

Vanguard 2 - Pass Details

Date: 21 June 2019
Orbit: 554 x 2938 km, 32.9° (Epoch: 13 October)

Event Time Altitude Azimuth Distance (km) Brightness Sun altitude
Rises 16:04:35 0° 271° (W) 5,601 12.9 36.6°
Reaches altitude 10° 16:09:38 10° 255° (WSW) 4,983 12.8 35.6°
Maximum altitude 16:18:39 19° 217° (SW) 4,763 12.1 33.8°
Drops below altitude 10° 16:29:00 10° 181° (S) 5,747 12.0 31.7°
Sets 16:35:45 0° 166° (SSE) 6,751 12.1 30.4°
